STARLINK-5863 (55922 NORAD) Tracking and Keplerian Element Data

This shows tracking and keplerian element data for the satellite.

Feedback or suggestion? Click here.




ElementValue
Catalog55922
NameSTARLINK-5863
Epoch Orbit840
Epoch Day127.25001157
Epoch Year2023
RAAN41.2478
Inclination70.0019
Eccentricity0.000319
Argument of Perigee271.0293
Mean Anonmoly49.7717
Mean Motion15.30220327
Decay Rate-0.00924275
L11 55922U 23037J 23127.25001157 -.00924275 00000+0 -34426-1 0 9994
L22 55922 70.0019 41.2478 0003190 271.0293 49.7717 15.30220327 8407



Live tracking and technical data element details for STARLINK-5863 (NORAD 55922). STARLINK-5863 can be tracked NOW for your location showing map with azimuth and elevation plus other details from your city location.







IsCatalogInMostPopularTable: catalog: 55922, numindb: 10
Update: records affected: 1



GetName: 55922 STARLINK-5863

Hit Count: updated at: Tue, 06 Jun 2023 03:03:07 GMT